Weather Roundup
Issued by NWS Springfield, MO

Home | Current Version | Previous Version | Text Only | Print | Product List | Glossary On
Versions: 1 2 3 4 5 6 7 8 9 10 11 12 13 14 15 16 17 18 19 20 21 22 23 24 25 26 27 28 29 30 31 32 33 34 35 36 37 38 39 40 41 42 43 44 45 46 47 48 49 50
000
NZUS99 KSGF 210557
HRRSGF

HOURLY WEATHER
NATIONAL WEATHER SERVICE SPRINGFIELD MO
100 AM CDT FRI JUL 21 2017

......SGF CWA......

CITY           SKY/WX    TMP DP  RH WIND       PRES   REMARKS
SPRINGFIELD    CLEAR     78  72  81 S8        30.03S
6HR MIN TEMP:  78; 6HR MAX TEMP:  93;

JOPLIN         CLEAR     81  74  79 S8        30.01S
6HR MIN TEMP:  81; 6HR MAX TEMP:  94;

WEST PLAINS    CLEAR     80  73  79 SW6       30.06S
6HR MIN TEMP:  80; 6HR MAX TEMP:  91;

ROLLA          CLEAR     77  72  84 S9        30.01S
6HR MIN TEMP:  77; 6HR MAX TEMP:  91;


......SURROUNDING SGF CWA......

CITY           SKY/WX    TMP DP  RH WIND       PRES   REMARKS
CHANUTE        CLEAR     83  72  69 S9        29.99R
PARSONS        CLEAR     81  73  76 S5        30.00R
COFFEYVILLE    CLEAR     80  74  81 S6        29.98S
EMPORIA        CLEAR     82  72  71 S15       29.96S
HARRISON AR    CLEAR     78  70  76 CALM      30.07F

......KANSAS AND MISSOURI......

CITY           SKY/WX    TMP DP  RH WIND       PRES   REMARKS
KANSAS CTY INT CLEAR     80  74  81 S9        29.97R
ST JOSEPH      CLEAR     79  76  90 S6        29.94R
ST LOUIS       CLEAR     90  70  51 SW7       29.98S HX  95
WICHITA        CLEAR     86  70  58 S17G25    29.96R HX  90
TOPEKA         CLEAR     84  74  71 S9        29.94S HX  91
OLATHE         CLEAR     81  74  79 S9        29.98R

......TENNESSEE......

CITY           SKY/WX    TMP DP  RH WIND       PRES   REMARKS
MEMPHIS        NOT AVBL
NASHVILLE      MOCLDY    78  73  84 S6        30.05S

......ARKANSAS.......

CITY           SKY/WX    TMP DP  RH WIND       PRES   REMARKS
FAYETTEVILLE   PTCLDY    74  74 100 CALM      30.06F
FT SMITH       PTCLDY    84  76  76 CALM      30.01F HX  93
LITTLE ROCK    CLEAR     82  76  81 SW6       30.02S

......OKLAHOMA.......

CITY           SKY/WX    TMP DP  RH WIND       PRES   REMARKS
TULSA          CLEAR     86  73  65 S9        29.97S HX  93
PONCA CITY     CLEAR     86  70  58 S9G21     29.97S HX  90
MCALESTER      CLEAR     81  74  79 S3        30.03S
OKLAHOMA CITY  CLEAR     82  68  62 S10       30.02R

......IOWA............

CITY           SKY/WX    TMP DP  RH WIND       PRES   REMARKS
DES MOINES     NOT AVBL
QUAD CITIES    LGT RAIN  74  71  91 NW5       29.97R

......ILLINOIS........

CITY           SKY/WX    TMP DP  RH WIND       PRES   REMARKS
QUINCY         NOT AVBL
CHICAGO        CLOUDY    75  69  81 CALM      29.96F




USA.gov is the U.S. government's official web portal to all federal, state and local government web resources and services.